Weather History for Billings, MT

Change the Weather History Date:

Monday, May 5, 2014

  Actual Average Record
Temperature  
Mean Temperature 54 °F 52 °F  
Max Temperature 67 °F 64 °F 84 °F (1936)
Min Temperature 41 °F 40 °F 26 °F (1967)
Degree Days  
Heating Degree Days 11 13  
Month to date heating degree days 66 68  
Since 1 July heating degree days 6848 6445  
Cooling Degree Days 0 0  
Month to date cooling degree days 0 0  
Year to date cooling degree days 0 1  
Growing Degree Days 4 (Base 50)    
Moisture  
Dew Point 43 °F    
Average Humidity 69    
Maximum Humidity 96    
Minimum Humidity 42    
Precipitation  
Precipitation 0.03 in 0.07 in 0.51 in (1978)
Month to date precipitation 0.03 0.32  
Year to date precipitation 5.61 4.00  
Snow  
Snow 0.00 in 0.10 in T in (1960)
Month to date snowfall 0.0 0.6  
Since 1 July snowfall 101.4 53.6  
Snow Depth 0.00 in    
Sea Level Pressure  
Sea Level Pressure 29.78 in    
Wind  
Wind Speed 8 mph (NNE)    
Max Wind Speed 31 mph    
Max Gust Speed 37 mph    
Visibility 10 miles    
Events Fog , Rain , Thunderstorm    
T = Trace of Precipitation, MM = Missing Value Source: NWS Daily Summary

Daily Weather History Graph

Daily Weather History Graph

Search for Another Location

Airport:

Trip Planner

Search our weather history database for the weather conditions in past years. The results will help you decide how hot, cold, wet, or windy it might be!

Date:

Astronomy

May. 05, 2014 Rise Set
Actual Time 5:55 AM MDT 8:26 PM MDT
Civil Twilight 5:22 AM MDT 9:00 PM MDT
Nautical Twilight 4:40 AM MDT 9:42 PM MDT
Astronomical Twilight 3:52 AM MDT 10:31 PM MDT
Moon 11:19 AM MDT (5/5) 1:12 AM MDT (5/5)
Length of Visible Light 15h 38m
Length of Day
14h 31m
Waxing Crescent, 37% of the Moon is Illuminated
May 5
Waxing Crescent
May 6
First Quarter
May 14
Full
May 21
Last Quarter
May 28
New

Hourly Weather History & Observations

Time (MDT) Temp. Windchill Dew Point Humidity Pressure Visibility Wind Dir Wind Speed Gust Speed Precip Events Conditions
12:53 AM 46.0 °F 40.6 °F 42.1 °F 86% 29.84 in 10.0 mi NNE 11.5 mph - N/A   Scattered Clouds
1:53 AM 45.0 °F 40.6 °F 42.1 °F 90% 29.84 in 10.0 mi NNE 8.1 mph - N/A   Mostly Cloudy
2:53 AM 44.1 °F 39.5 °F 41.0 °F 89% 29.83 in 10.0 mi NNE 8.1 mph - N/A   Partly Cloudy
3:53 AM 43.0 °F 39.5 °F 41.0 °F 93% 29.84 in 10.0 mi NNE 5.8 mph - N/A   Scattered Clouds
4:26 AM 44.1 °F 38.6 °F 41.0 °F 89% 29.87 in 10.0 mi NNW 10.4 mph - N/A   Mostly Cloudy
4:53 AM 44.1 °F 41.5 °F 41.0 °F 89% 29.84 in 10.0 mi NE 4.6 mph - N/A   Mostly Cloudy
5:53 AM 42.1 °F 38.4 °F 39.0 °F 89% 29.85 in 10.0 mi NW 5.8 mph - N/A Fog Scattered Clouds
6:53 AM 43.0 °F 40.3 °F 41.0 °F 93% 29.85 in 10.0 mi SW 4.6 mph - N/A   Scattered Clouds
7:53 AM 45.0 °F 41.2 °F 42.1 °F 90% 29.84 in 10.0 mi South 6.9 mph - N/A   Scattered Clouds
8:53 AM 48.0 °F - 42.1 °F 80% 29.83 in 10.0 mi WSW 5.8 mph - N/A   Scattered Clouds
9:53 AM 51.1 °F - 43.0 °F 74% 29.82 in 10.0 mi South 3.5 mph - N/A   Mostly Cloudy
10:53 AM 54.0 °F - 43.0 °F 66% 29.80 in 10.0 mi SE 5.8 mph - N/A   Mostly Cloudy
11:53 AM 57.2 °F - 44.6 °F 63% 29.79 in 10.0 mi Calm Calm - N/A   Mostly Cloudy
12:53 PM 63.0 °F - 44.1 °F 50% 29.74 in 10.0 mi East 9.2 mph - N/A   Scattered Clouds
1:53 PM 66.0 °F - 44.1 °F 45% 29.71 in 10.0 mi NE 11.5 mph - N/A   Mostly Cloudy
2:53 PM 66.9 °F - 43.0 °F 42% 29.68 in 10.0 mi ENE 10.4 mph - N/A   Scattered Clouds
3:53 PM 66.0 °F - 44.1 °F 45% 29.67 in 10.0 mi ESE 11.5 mph 18.4 mph N/A   Mostly Cloudy
4:11 PM 66.9 °F - 44.1 °F 44% 29.71 in 10.0 mi SW 6.9 mph - N/A Thunderstorm Thunderstorm
4:48 PM 60.8 °F - 42.8 °F 52% 29.71 in 10.0 mi NNE 15.0 mph - N/A Thunderstorm Thunderstorm
4:53 PM 60.1 °F - 43.0 °F 53% 29.69 in 10.0 mi North 12.7 mph - N/A   Scattered Clouds
5:53 PM 57.9 °F - 41.0 °F 53% 29.70 in 10.0 mi North 31.1 mph 38.0 mph 0.00 in Rain , Thunderstorm Light Thunderstorms and Rain
6:32 PM 54.0 °F - 46.0 °F 75% 29.72 in 10.0 mi NNE 17.3 mph - 0.03 in   Mostly Cloudy
6:53 PM 54.0 °F - 46.0 °F 75% 29.72 in 10.0 mi NNE 12.7 mph - 0.03 in   Mostly Cloudy
7:53 PM 54.0 °F - 45.0 °F 72% 29.75 in 10.0 mi NNE 10.4 mph 18.4 mph N/A   Mostly Cloudy
8:53 PM 52.0 °F - 44.1 °F 74% 29.79 in 10.0 mi NE 4.6 mph - N/A   Overcast
9:53 PM 51.8 °F - 42.8 °F 71% 29.82 in 10.0 mi North 5.8 mph - N/A   Mostly Cloudy
10:53 PM 51.1 °F - 44.1 °F 77% 29.80 in 10.0 mi NNE 5.8 mph - N/A   Mostly Cloudy
11:53 PM 50.0 °F - 45.0 °F 83% 29.79 in 10.0 mi North 5.8 mph - N/A   Overcast